Wind_Speed
7 7 7 9 10 10 9 10 11 12 13 14 14 15 14 13 12 7 5 5 7 8 10 12 13 13 13 12 11 10 9 7 6 5 5 5 6 6 6 7 6 7 7 7
9 8 10 11 11 11 10 10 11 12 13 13 14 14 13 13 10 7 3 3 7 9 12 12 12 13 12 12 11 10 8 7 6 5 4 5 5 6 6 6 6 6 6 7
11 10 10 10 10 10 10 11 11 12 12 13 13 13 13 12 10 6 2 2 6 9 11 12 12 12 12 11 11 9 8 7 6 5 4 4 5 5 5 5 5 5 6 6
11 10 9 9 10 11 11 12 12 11 11 11 12 13 13 11 9 6 2 3 6 8 10 11 11 11 11 11 10 9 8 6 5 4 4 4 4 3 3 3 4 5 5 6
11 9 8 9 10 12 12 13 12 12 11 11 11 12 12 10 8 5 2 4 7 8 10 11 11 11 11 10 9 8 7 6 5 4 4 4 3 2 2 3 4 4 5 6
12 10 9 10 11 12 12 13 12 11 11 10 10 11 11 10 7 4 1 3 5 7 8 9 10 10 9 8 8 8 7 6 5 5 4 4 3 2 2 3 3 4 5 5
12 11 11 11 13 13 12 13 12 10 9 8 9 8 8 8 6 3 0 2 4 5 6 7 8 8 8 8 7 7 7 7 6 6 5 4 3 3 3 3 3 4 5 6
13 12 13 13 14 14 13 13 11 10 8 8 8 7 7 7 6 4 3 2 3 4 5 6 7 7 7 8 8 8 8 7 7 6 6 5 4 4 4 4 4 4 5 6
15 13 14 14 14 14 14 13 12 11 9 8 8 8 7 6 6 5 5 4 4 4 5 6 7 7 8 8 8 8 8 8 8 7 7 6 5 5 5 5 6 6 7 8
17 16 14 15 16 15 14 13 13 13 12 10 9 9 8 7 7 7 7 6 6 6 7 7 8 9 9 9 9 9 9 9 9 8 8 8 7 7 7 7 8 8 9 10
19 18 16 16 16 15 15 14 14 15 15 14 12 9 10 9 8 8 8 8 8 8 9 9 9 9 10 10 10 10 10 10 10 10 10 9 9 9 9 9 9 10 11 13
18 18 16 15 15 15 16 15 16 17 17 16 14 9 11 11 10 10 10 9 10 10 10 11 11 11 11 11 11 12 12 12 12 12 12 11 11 11 11 11 12 13 14 15
18 16 15 15 15 16 17 17 18 18 18 17 16 12 12 12 12 11 11 11 11 11 11 12 13 13 13 13 14 14 14 14 14 14 14 13 13 13 13 14 15 16 17 18
16 15 15 16 17 17 18 18 19 19 19 19 17 14 13 13 13 12 12 13 13 13 13 14 14 15 15 15 15 15 15 16 16 16 16 16 16 16 16 17 18 19 20 21
16 15 16 18 18 19 19 20 21 21 20 19 17 16 14 15 14 14 14 14 14 15 15 15 16 16 16 16 17 17 17 17 18 18 18 18 18 19 19 20 21 22 23 24
16 16 17 18 19 19 20 20 22 22 21 20 18 17 17 18 17 17 17 16 16 16 16 17 17 17 17 18 18 19 19 20 20 19 20 20 21 21 22 23 24 25 26 28
16 17 17 18 19 20 20 19 20 20 20 20 19 18 18 19 19 20 20 19 18 18 18 18 18 18 19 19 20 20 21 22 21 21 22 22 23 24 25 26 27 28 30 31
16 16 17 17 18 20 19 20 21 21 21 21 20 20 19 20 20 21 22 22 21 20 20 20 20 20 21 21 22 23 22 23 23 23 24 25 26 27 28 29 30 31 32 33
17 17 17 17 18 19 19 20 21 22 21 21 21 21 22 22 22 22 22 23 23 23 24 24 24 23 23 23 24 25 24 24 25 26 27 27 28 29 30 32 33 34 35 35
17 18 18 18 19 18 17 19 20 21 21 21 22 22 22 22 23 23 23 24 26 27 27 27 27 25 25 26 26 25 25 26 27 28 29 30 30 32 33 34 35 36 37 38
18 18 18 18 18 18 18 20 21 22 22 22 22 23 22 23 23 23 23 25 28 29 30 29 28 27 28 28 27 27 28 28 29 30 30 32 33 34 36 37 38 39 40 40
19 19 19 19 18 18 19 20 21 22 22 22 23 23 24 23 24 24 24 26 28 28 29 29 30 29 30 30 30 29 30 30 31 32 32 34 35 37 38 40 41 41 42 43
19 19 19 19 19 19 19 20 21 21 21 22 23 23 24 24 24 24 25 26 27 28 29 29 29 29 30 31 31 32 32 32 33 34 36 37 38 40 42 43 43 44 45 46
20 20 20 20 20 20 20 20 19 19 21 22 23 23 24 24 24 24 24 25 25 26 27 27 28 30 31 32 33 33 34 34 35 36 38 40 41 43 45 45 46 48 48 49
22 21 21 21 21 21 21 21 21 20 20 21 22 23 22 23 24 24 24 25 26 27 27 27 28 29 31 32 34 36 36 36 38 40 41 43 44 45 47 48 49 50 51 52
22 22 22 22 22 23 22 22 21 21 21 21 21 22 22 22 23 24 24 24 26 27 28 28 29 31 32 33 34 36 38 39 41 42 44 45 47 48 49 50 51 52 53 54
Wind_Direction
271 270 277 295 306 313 317 326 329 331 333 333 333 335 334 335 339 325 287 236 207 203 194 191 189 184 185 188 190 191 195 205 219 236 249 267 280 286 298 304 309 317 318 316
257 260 276 286 297 307 314 320 324 325 327 331 332 337 340 340 344 343 308 230 201 194 183 183 186 188 187 183 185 191 198 209 215 222 244 266 280 287 299 308 314 317 319 322
258 265 276 286 293 303 310 318 320 324 325 327 330 337 341 342 352 357 351 177 185 182 180 180 182 184 188 188 195 198 197 197 209 228 252 272 281 289 296 305 315 321 325 329
256 262 272 283 295 307 314 315 317 321 323 328 330 337 343 347 352 5 47 133 157 166 174 175 179 182 187 191 192 190 191 199 212 229 251 266 278 289 295 307 319 326 331 334
252 260 271 285 298 306 310 311 310 311 314 318 326 334 343 346 351 5 81 124 149 161 168 174 176 177 181 184 189 192 196 203 210 219 237 248 262 280 294 310 318 325 332 336
246 256 274 290 298 303 308 308 307 307 308 314 321 327 339 346 351 4 95 138 153 162 167 173 178 177 179 184 191 194 196 203 210 216 226 235 248 268 287 299 310 323 333 339
246 257 273 289 297 300 300 305 306 305 306 311 319 325 334 342 347 356 72 170 174 172 172 174 180 183 188 191 194 199 202 207 213 219 225 233 243 257 270 286 305 317 326 333
252 260 273 285 295 295 294 298 303 305 304 308 312 320 325 330 335 327 296 248 203 193 186 189 193 196 200 204 205 210 211 212 218 224 228 233 240 246 257 274 291 303 313 322
261 266 273 278 287 289 288 291 295 297 297 303 309 310 314 317 317 312 294 272 241 219 215 215 218 217 217 217 218 219 216 218 223 228 231 233 235 243 255 269 281 291 301 312
266 274 273 274 276 278 281 285 286 289 293 296 298 300 299 291 288 283 276 269 257 239 229 227 229 227 223 222 223 224 222 223 227 231 235 237 240 248 260 271 281 289 296 303
264 273 274 266 268 273 277 282 284 283 287 291 293 289 286 282 274 275 270 262 258 250 240 235 233 231 228 227 229 230 229 230 232 236 241 244 247 254 264 275 283 289 294 298
264 270 268 262 258 265 272 278 281 282 283 283 284 289 277 273 275 275 271 265 261 256 249 245 242 239 237 236 237 236 237 238 240 243 246 249 254 260 268 275 283 289 293 295
266 269 266 257 257 263 267 271 277 281 279 277 279 285 276 270 270 276 271 265 262 260 254 250 249 247 244 242 242 241 242 243 245 248 251 254 258 264 270 275 282 287 291 294
267 267 264 263 259 262 267 270 274 279 279 276 276 277 270 268 267 270 268 263 260 261 258 254 252 251 249 247 246 247 247 249 250 252 255 259 263 268 272 277 282 286 289 293
267 262 263 264 263 263 269 270 273 277 278 275 271 271 270 267 266 268 266 263 261 260 258 256 253 252 253 252 252 252 252 254 255 257 260 264 268 272 276 279 282 285 288 291
266 267 264 263 265 267 270 273 274 274 275 273 270 269 271 268 268 268 268 266 265 266 261 256 255 254 254 255 254 255 256 257 258 262 265 269 272 276 279 281 283 285 287 290
265 271 271 264 265 271 273 277 274 270 271 271 272 273 273 270 268 266 264 264 262 264 262 258 257 258 256 255 255 256 258 261 262 266 270 273 275 277 280 282 284 285 287 289
261 267 270 270 272 273 278 275 274 271 269 268 271 273 269 269 267 267 263 260 259 261 261 258 257 260 260 259 260 259 261 264 267 270 273 275 277 279 281 283 284 285 287 289
264 267 272 276 277 280 277 274 272 270 268 268 269 270 266 267 267 266 265 260 259 260 261 261 261 262 262 261 262 262 263 267 270 272 274 276 278 280 281 283 284 286 288 290
267 269 272 274 277 279 277 274 272 272 270 271 269 268 266 266 264 265 264 260 260 260 262 263 263 263 263 262 263 264 265 268 270 273 275 277 279 281 283 285 286 288 289 290
265 268 270 273 277 279 277 274 272 272 273 270 269 267 267 267 266 263 263 261 260 261 261 261 263 262 260 261 263 265 267 270 271 273 276 279 280 282 283 285 286 288 289 290
262 265 267 271 275 277 275 273 273 274 273 270 268 267 269 268 267 265 264 261 259 261 259 261 261 261 262 262 263 265 268 270 273 276 278 280 282 283 285 286 287 288 289 290
262 265 267 271 274 276 276 276 276 274 272 270 269 269 269 269 267 266 264 261 259 259 260 261 262 263 264 264 265 265 268 272 274 276 277 281 283 284 285 286 287 288 289 290
263 266 268 271 274 277 278 275 274 274 273 271 272 271 270 268 268 268 266 262 259 261 263 263 263 263 265 268 268 269 273 274 276 278 280 282 283 284 284 285 286 288 289 289
266 268 270 272 274 275 275 273 272 272 272 271 272 270 271 270 269 269 267 264 263 263 264 264 265 267 269 270 271 272 275 276 278 279 280 281 282 284 285 285 286 288 289 290
265 267 270 272 273 275 274 273 272 270 270 270 271 269 269 269 268 269 269 268 268 268 269 270 271 273 275 277 278 279 279 280 281 282 282 283 284 285 286 286 287 287 288 289
Height
5874 5875 5874 5873 5873 5872 5870 5868 5865 5863 5860 5857 5854 5851 5847 5844 5841 5838 5837 5836 5836 5837 5839 5841 5844 5848 5850 5854 5856 5859 5861 5863 5865 5866 5867 5867 5868 5868 5867 5867 5866 5866 5866 5866
5873 5873 5872 5872 5871 5869 5868 5866 5864 5862 5859 5856 5853 5850 5847 5843 5840 5838 5837 5836 5836 5838 5839 5841 5844 5847 5850 5852 5855 5858 5860 5862 5863 5864 5865 5866 5866 5866 5865 5865 5865 5865 5864 5864
5870 5871 5870 5870 5868 5867 5866 5864 5862 5860 5858 5856 5853 5851 5847 5844 5841 5839 5837 5836 5837 5838 5840 5841 5844 5846 5849 5852 5854 5857 5858 5860 5861 5862 5863 5864 5864 5864 5864 5864 5864 5863 5863 5863
5868 5869 5868 5867 5866 5865 5863 5862 5860 5859 5857 5855 5853 5850 5848 5844 5842 5840 5838 5837 5838 5839 5841 5842 5844 5846 5849 5851 5853 5855 5857 5858 5860 5860 5861 5862 5863 5863 5863 5863 5862 5862 5862 5861
5866 5866 5866 5865 5864 5862 5861 5860 5859 5857 5856 5855 5852 5850 5849 5845 5843 5841 5839 5839 5840 5840 5842 5843 5845 5846 5849 5851 5852 5854 5856 5857 5858 5859 5860 5861 5861 5861 5861 5861 5861 5861 5860 5860
5863 5864 5863 5862 5861 5860 5859 5858 5857 5856 5855 5854 5852 5850 5849 5846 5844 5842 5841 5840 5841 5842 5843 5844 5845 5847 5848 5850 5852 5853 5854 5856 5857 5858 5859 5859 5859 5859 5860 5860 5860 5859 5859 5858
5861 5861 5860 5860 5859 5858 5857 5857 5856 5854 5853 5853 5851 5849 5849 5847 5845 5844 5843 5842 5842 5842 5843 5844 5845 5846 5848 5849 5851 5852 5853 5854 5856 5857 5857 5858 5858 5858 5858 5858 5858 5858 5857 5857
5857 5858 5858 5857 5857 5856 5855 5855 5854 5853 5852 5851 5850 5849 5849 5847 5845 5844 5844 5844 5843 5843 5844 5844 5845 5846 5847 5849 5850 5851 5852 5853 5854 5855 5855 5856 5856 5856 5856 5856 5856 5856 5855 5855
5854 5854 5854 5853 5853 5853 5852 5852 5852 5851 5850 5850 5849 5849 5848 5847 5846 5845 5844 5844 5843 5843 5843 5844 5845 5845 5846 5847 5848 5849 5850 5851 5852 5853 5853 5853 5854 5854 5854 5854 5854 5854 5853 5852
5849 5850 5850 5849 5850 5850 5850 5849 5849 5848 5848 5847 5848 5847 5847 5846 5845 5845 5844 5843 5843 5843 5843 5843 5844 5844 5845 5846 5847 5848 5848 5849 5850 5850 5851 5851 5851 5851 5852 5851 5851 5850 5850 5849
5844 5845 5845 5845 5845 5845 5846 5846 5845 5845 5845 5845 5844 5847 5845 5844 5844 5844 5843 5842 5842 5842 5842 5842 5842 5843 5843 5844 5845 5846 5846 5847 5847 5848 5848 5848 5848 5848 5848 5848 5847 5847 5846 5845
5839 5840 5840 5841 5841 5841 5841 5841 5841 5842 5841 5841 5841 5845 5843 5842 5841 5841 5841 5841 5841 5841 5840 5841 5841 5841 5842 5842 5843 5843 5843 5844 5844 5844 5845 5844 5845 5845 5844 5844 5843 5843 5842 5841
5834 5835 5835 5836 5838 5838 5837 5837 5837 5837 5837 5837 5838 5842 5839 5839 5839 5838 5838 5838 5838 5838 5838 5838 5838 5838 5839 5839 5839 5840 5840 5840 5841 5841 5841 5841 5841 5840 5840 5839 5839 5838 5837 5836
5829 5829 5831 5832 5832 5832 5832 5832 5832 5832 5832 5833 5834 5835 5836 5835 5835 5835 5835 5835 5835 5835 5835 5835 5835 5835 5836 5836 5836 5836 5836 5836 5837 5837 5837 5836 5836 5835 5835 5834 5833 5832 5831 5830
5824 5825 5825 5826 5826 5827 5827 5827 5827 5827 5828 5828 5830 5830 5831 5831 5831 5831 5831 5831 5832 5832 5832 5832 5832 5832 5832 5832 5832 5832 5832 5832 5832 5832 5832 5831 5831 5830 5829 5828 5827 5826 5825 5824
5819 5820 5820 5821 5821 5821 5822 5822 5822 5822 5822 5823 5824 5826 5826 5826 5827 5827 5827 5828 5828 5828 5828 5828 5828 5828 5828 5828 5827 5827 5827 5827 5827 5826 5826 5825 5825 5824 5823 5822 5821 5820 5819 5817
5814 5815 5815 5815 5815 5816 5817 5817 5816 5816 5817 5818 5819 5821 5821 5821 5821 5822 5822 5823 5823 5823 5823 5823 5823 5823 5823 5823 5822 5822 5821 5821 5820 5820 5819 5819 5818 5817 5816 5815 5814 5813 5811 5809
5809 5809 5810 5810 5811 5810 5814 5811 5810 5811 5812 5813 5813 5814 5815 5815 5815 5815 5816 5817 5817 5818 5817 5817 5817 5817 5817 5816 5816 5815 5815 5814 5814 5813 5812 5811 5810 5809 5808 5807 5806 5804 5803 5801
5803 5804 5804 5805 5805 5805 5806 5805 5805 5805 5806 5807 5807 5808 5808 5808 5809 5809 5810 5810 5811 5811 5811 5811 5810 5810 5810 5809 5809 5808 5808 5807 5806 5805 5804 5804 5803 5801 5800 5799 5797 5796 5794 5792
5797 5798 5799 5799 5799 5800 5801 5800 5799 5800 5801 5801 5801 5801 5801 5802 5802 5803 5803 5803 5803 5803 5803 5803 5803 5802 5802 5802 5801 5801 5800 5799 5799 5797 5797 5795 5794 5793 5792 5790 5788 5786 5784 5782
5792 5793 5794 5794 5793 5794 5795 5793 5794 5795 5795 5794 5794 5794 5794 5794 5795 5795 5795 5795 5795 5795 5795 5795 5795 5794 5794 5793 5793 5793 5792 5791 5790 5789 5788 5787 5785 5784 5782 5780 5778 5776 5774 5771
5786 5787 5788 5788 5789 5790 5788 5788 5788 5788 5787 5786 5786 5786 5787 5787 5787 5786 5786 5786 5786 5786 5786 5786 5786 5786 5785 5784 5784 5784 5783 5782 5781 5780 5779 5777 5776 5774 5772 5770 5767 5765 5762 5760
5781 5782 5782 5784 5785 5783 5782 5781 5781 5780 5780 5779 5779 5779 5780 5779 5779 5779 5778 5778 5778 5778 5778 5778 5777 5777 5776 5776 5776 5775 5774 5773 5772 5771 5769 5767 5765 5763 5761 5759 5756 5753 5750 5748
5775 5776 5776 5777 5777 5777 5776 5775 5774 5774 5773 5773 5773 5772 5772 5772 5772 5771 5771 5770 5770 5770 5769 5769 5769 5768 5768 5767 5767 5766 5764 5763 5762 5761 5759 5756 5754 5752 5749 5747 5744 5741 5737 5734
5769 5769 5770 5770 5770 5770 5769 5769 5768 5768 5767 5766 5766 5765 5765 5765 5765 5764 5763 5763 5762 5762 5761 5761 5760 5760 5759 5758 5757 5756 5754 5753 5751 5750 5747 5745 5742 5740 5737 5734 5731 5727 5724 5720
5762 5763 5764 5764 5763 5763 5763 5762 5762 5761 5760 5760 5759 5759 5758 5758 5758 5757 5756 5756 5755 5754 5754 5753 5752 5751 5750 5748 5747 5745 5744 5742 5740 5738 5735 5732 5730 5727 5724 5720 5717 5713 5710 5706